{"data":{"norad_id":64079,"intl_designator":"2025-107R","name":"STARLINK-34168","alt_names":[],"object_type":"PAYLOAD","status":"ACTIVE","operator":null,"country":"US","launch_date":"2025-05-21","launch_site_code":"AFETR","launch_vehicle":null,"mission":null,"orbit_class":"UNKNOWN","rcs_meters":null,"size_class":null,"mass_kg":null,"dimensions":null,"purposes":["comms"],"wikipedia_slug":null,"has_3d_model":false,"image_url":null,"decayed_at":null,"tle_current":{"epoch":"2026-05-24T09:44:16.092384Z","epoch_age_seconds":122276,"freshness":"FRESH","line1":"1 64079U 25107R   26144.40574181  .00009940  00000+0  37031-3 0  9996","line2":"2 64079  43.0005 133.6489 0001339 273.3733  86.6965 15.27573007 57704","mean_motion":15.27573007,"eccentricity":0.0001339,"inclination_deg":43.0005,"raan_deg":133.6489,"arg_perigee_deg":273.3733,"mean_anomaly_deg":86.6965,"bstar":0.00037031,"rev_number":5770,"period_min":94.267180252682,"perigee_km":482.15132005518,"apogee_km":483.98875129933,"semimajor_km":6861.2070356773,"source":"CELESTRAK","updated_at":"2026-05-25T13:38:20.261037Z"}}}